Dewpoint
33 37 35 39 42 45 44 46 45 48 49 51 49 48 51 55 51 55 58 57 56 55 57 58 60 60 64 66 64 65 66 68 70 69 69 69 68 70 70 72 71 72 71 71
28 32 39 39 43 43 44 46 46 45 48 48 52 51 51 52 55 54 55 58 57 59 57 59 61 62 63 65 66 66 65 70 70 70 70 71 70 69 69 72 71 71 71 72
26 28 39 39 41 42 41 43 44 42 46 48 49 48 50 52 55 55 55 56 55 57 58 57 61 60 62 64 65 67 67 69 70 70 71 71 71 71 72 69 69 68 68 71
23 26 37 39 41 41 39 41 41 41 40 36 45 35 46 50 50 50 48 53 55 55 57 56 58 61 63 63 64 69 68 69 70 69 70 69 66 67 70 69 67 69 70 71
23 36 37 36 38 40 38 40 38 39 38 40 42 40 46 49 47 45 48 49 54 57 58 58 58 61 63 64 66 69 69 70 70 71 70 70 67 68 71 70 69 70 70 73
25 29 35 41 40 39 41 40 41 43 38 32 37 39 41 44 45 45 48 50 52 57 58 59 61 63 62 67 68 69 69 69 70 72 72 70 69 70 70 70 70 71 72 72
23 28 36 38 36 38 35 36 34 37 37 31 41 35 37 41 45 47 47 48 50 56 58 58 60 63 64 67 68 69 69 70 71 71 70 70 70 70 69 70 70 70 70 71
22 23 36 39 34 32 30 30 33 30 32 33 40 35 37 43 46 48 48 48 51 57 57 58 60 62 63 67 69 69 70 70 71 71 70 71 70 71 71 71 70 70 70 70
23 24 27 27 31 30 30 28 30 34 38 33 36 37 37 46 46 46 48 49 55 57 57 58 60 62 64 68 69 69 69 70 71 70 71 71 71 72 72 72 70 69 68 65
20 19 20 24 30 33 29 29 22 27 31 34 33 37 37 40 44 44 47 49 52 57 58 60 61 62 65 68 69 69 69 70 71 71 71 72 72 72 70 69 64 63 63 62
18 18 16 21 24 25 18 23 22 28 34 32 29 37 43 39 44 47 46 47 52 57 59 61 62 62 64 66 68 69 70 70 70 70 71 72 73 71 66 64 63 62 62 62
17 18 20 19 20 19 17 16 19 19 20 33 32 33 37 41 43 45 48 49 53 58 59 61 62 62 63 66 68 69 70 70 70 69 71 72 71 68 64 62 63 62 62 63
28 17 16 15 16 17 14 15 17 20 20 18 21 31 34 35 38 45 48 51 56 57 59 60 61 61 62 66 68 68 69 69 69 71 71 71 69 65 63 62 62 61 62 62
34 17 16 15 16 19 17 16 15 12 12 14 22 25 28 36 45 43 50 54 57 57 58 59 61 61 61 65 67 68 69 69 70 71 71 70 66 63 62 61 62 61 61 62
16 15 16 19 20 20 19 21 20 13 12 12 14 25 26 37 47 51 52 53 53 55 57 59 60 60 61 64 67 68 68 69 70 70 70 67 65 64 62 61 62 62 62 62
17 12 34 14 19 25 19 20 19 17 19 17 19 21 28 41 42 50 52 52 48 49 56 58 59 60 61 63 66 67 68 69 70 69 68 66 64 63 61 61 62 61 62 61
19 14 18 21 23 25 20 24 33 44 44 41 43 44 51 53 53 52 51 50 52 52 56 57 58 59 60 62 65 67 68 70 69 69 67 65 64 62 61 61 61 61 62 61
23 19 26 22 33 23 25 44 46 46 47 48 48 50 53 54 54 54 55 54 54 56 58 57 58 59 60 62 65 67 68 69 69 68 66 64 64 61 61 61 61 61 61 61
22 32 32 26 27 27 35 41 36 46 47 49 50 50 52 53 54 55 57 65 66 67 68 64 60 61 66 66 64 63 62 61 62 62 66 64 64 62 63 62 61 61 61 61
36 34 32 30 27 26 37 45 47 47 46 50 50 51 50 51 50 54 60 68 68 67 65 66 65 65 63 64 64 62 61 62 62 62 64 66 65 64 62 62 62 62 61 61
32 35 29 35 30 37 45 47 49 30 41 51 50 51 50 49 51 54 66 68 68 66 64 64 64 63 64 64 64 62 61 59 62 64 66 66 66 65 64 63 62 62 61 61
31 34 35 36 34 39 47 46 43 49 50 50 49 49 51 51 52 57 67 67 67 66 64 64 63 63 64 64 64 61 59 60 61 65 67 66 66 66 65 64 62 62 61 61
35 37 38 39 40 46 48 48 49 50 49 49 48 53 57 59 58 66 66 66 65 63 63 62 63 62 62 62 60 59 60 62 62 67 66 66 66 66 64 63 61 61 59 58
42 44 42 43 49 49 51 51 50 49 48 56 62 63 64 63 65 66 66 65 65 64 63 62 61 61 61 61 60 60 61 63 65 65 66 66 65 64 64 63 62 61 60 59
44 45 47 50 52 52 53 52 52 52 53 64 64 64 64 64 64 64 66 65 65 64 63 63 62 61 61 61 61 61 62 64 63 64 64 64 64 64 63 63 62 62 61 60
47 47 47 49 52 51 51 52 53 51 62 64 63 62 64 65 64 64 65 64 65 65 64 62 62 62 62 62 63 63 63 65 64 63 63 63 64 64 63 62 62 58 56 56
Lifted_Index
2 1 1 0 0 -0 -0 -0 -1 -1 -1 -1 -1 -1 -1 -1 -1 -1 -1 -2 -2 -1 -1 -1 -1 -1 -1 -1 -2 -2 -3 -3 -3 -3 -2 -2 -2 -2 -3 -3 -3 -4 -4 -4
1 1 0 -0 -0 -0 -0 -0 -0 -0 -1 -1 -1 -1 -1 -1 -1 -1 -1 -2 -2 -2 -1 -1 -1 -1 -1 -1 -2 -2 -3 -3 -4 -4 -3 -3 -3 -3 -3 -3 -3 -3 -4 -4
1 1 0 -0 -1 -1 -0 -0 -0 -0 -1 -1 -1 -1 -1 -0 0 0 -1 -1 -2 -2 -2 -2 -2 -2 -2 -2 -2 -2 -2 -3 -4 -4 -4 -4 -4 -3 -3 -3 -3 -2 -3 -4
2 1 0 -1 -1 -1 -1 -0 -0 -1 -1 -1 -1 -1 -0 0 1 1 -0 -1 -1 -2 -2 -2 -2 -2 -2 -2 -2 -3 -3 -3 -4 -4 -5 -4 -4 -3 -3 -3 -2 -2 -3 -4
2 1 0 -0 -0 -1 -1 -0 -0 -0 -0 -0 0 0 1 1 1 1 -0 -1 -2 -2 -2 -3 -3 -2 -2 -3 -3 -3 -3 -3 -4 -4 -5 -5 -4 -4 -4 -4 -3 -3 -4 -4
2 2 1 0 -0 -1 -1 -1 -0 -0 -0 0 1 1 1 1 2 1 -0 -1 -2 -2 -3 -3 -3 -3 -2 -3 -3 -3 -4 -4 -4 -4 -5 -5 -5 -5 -4 -4 -4 -4 -4 -4
2 1 1 0 -0 -1 -1 -1 -0 -0 -0 -0 1 1 1 1 1 1 -0 -1 -2 -2 -3 -3 -3 -3 -3 -3 -4 -4 -3 -4 -4 -5 -5 -5 -5 -5 -5 -5 -5 -4 -4 -4
1 1 0 -0 -0 -0 -0 -0 -0 -0 -0 -0 0 1 1 1 1 0 -0 -1 -2 -3 -3 -3 -3 -3 -3 -3 -4 -4 -4 -4 -4 -5 -6 -6 -6 -5 -5 -5 -5 -4 -4 -4
1 0 -0 -0 -1 -1 -0 -0 -0 -0 -0 -0 0 0 1 1 1 0 -0 -1 -3 -4 -4 -4 -4 -4 -3 -4 -4 -4 -4 -4 -4 -5 -5 -6 -6 -6 -6 -5 -5 -4 -3 -2
1 1 -0 -0 -1 -1 -1 -0 -0 -0 -0 -0 -0 -0 0 0 0 0 -1 -2 -3 -4 -4 -4 -4 -4 -4 -4 -4 -4 -4 -4 -5 -5 -5 -6 -6 -6 -6 -5 -4 -3 -2 -1
2 1 0 -0 -1 -1 -0 -0 -0 -0 -0 -0 -1 -0 0 0 0 -0 -1 -2 -3 -4 -4 -4 -4 -4 -4 -4 -4 -4 -4 -4 -5 -5 -5 -6 -6 -6 -5 -5 -3 -2 0 1
2 1 0 -0 -0 -0 -0 -0 -0 -0 -0 -0 -1 -0 0 1 0 -0 -1 -1 -3 -4 -4 -4 -4 -5 -5 -5 -5 -5 -5 -5 -5 -5 -6 -6 -6 -6 -5 -4 -2 -0 1 2
1 1 0 -0 -0 -0 -0 -0 -0 -0 -0 -1 -1 -0 0 1 1 0 -1 -2 -3 -4 -4 -5 -5 -5 -5 -5 -6 -6 -6 -6 -6 -6 -6 -7 -7 -6 -5 -2 -0 1 1 2
1 1 1 0 0 0 -0 -0 -0 -0 -0 -0 -0 -0 0 1 0 -0 -1 -2 -4 -4 -5 -5 -5 -5 -5 -5 -6 -6 -6 -6 -6 -6 -7 -7 -7 -6 -4 -1 1 1 1 1
1 1 1 1 1 0 0 -0 -0 -0 -0 -0 -0 -0 0 0 -0 -1 -2 -3 -4 -4 -5 -5 -5 -5 -5 -5 -6 -6 -6 -7 -7 -7 -7 -7 -6 -5 -3 -1 1 1 1 0
1 1 1 1 1 1 0 0 -0 -0 -0 -0 -0 -0 -0 -0 -1 -2 -3 -3 -3 -4 -4 -5 -5 -5 -5 -5 -6 -6 -7 -7 -7 -7 -7 -7 -6 -5 -3 -0 1 1 1 0
2 2 2 1 1 1 0 0 -0 -1 -1 -1 -1 -1 -2 -2 -2 -3 -3 -3 -4 -4 -4 -4 -4 -5 -5 -5 -6 -6 -7 -7 -7 -7 -7 -7 -6 -5 -3 -0 1 1 1 1
3 3 2 2 1 1 1 0 -0 -1 -2 -2 -2 -2 -3 -3 -3 -3 -4 -5 -5 -5 -5 -5 -5 -5 -5 -5 -5 -6 -6 -6 -6 -6 -6 -7 -6 -5 -3 -1 1 1 1 1
3 3 2 2 2 1 1 1 0 -1 -2 -2 -2 -2 -3 -3 -3 -4 -5 -7 -7 -7 -7 -7 -6 -6 -5 -5 -5 -6 -6 -5 -3 -2 -4 -6 -6 -5 -3 -1 1 1 1 1
2 2 2 2 2 1 1 1 0 -0 -1 -1 -2 -2 -2 -2 -3 -4 -6 -7 -8 -8 -8 -8 -7 -7 -6 -6 -6 -5 -4 -3 -1 1 -1 -3 -5 -4 -3 -1 1 1 1 1
1 2 2 2 2 2 1 1 0 0 -0 -1 -1 -1 -2 -2 -2 -4 -6 -7 -7 -7 -7 -7 -7 -7 -6 -6 -5 -4 -2 -1 0 1 1 -1 -3 -3 -2 -1 0 1 1 1
1 1 1 2 2 2 1 1 0 0 -0 -0 -1 -1 -2 -2 -3 -4 -6 -7 -7 -6 -6 -6 -6 -6 -6 -5 -4 -2 -0 1 1 1 -0 -1 -2 -2 -1 -1 -0 0 1 2
0 1 1 1 1 1 1 1 0 0 -0 -1 -1 -2 -3 -4 -4 -5 -6 -6 -5 -5 -5 -4 -5 -4 -4 -3 -2 -1 1 1 1 -0 -1 -2 -2 -2 -2 -1 -1 0 1 2
1 1 0 0 0 0 1 0 0 -0 -1 -2 -3 -4 -4 -5 -5 -5 -5 -5 -4 -4 -4 -3 -3 -2 -2 -1 -1 -0 0 0 -0 -1 -2 -2 -2 -2 -2 -2 -0 1 2 2
1 1 0 -0 -0 -0 -0 -0 -0 -1 -1 -3 -4 -4 -4 -4 -4 -4 -4 -4 -4 -4 -3 -3 -2 -2 -1 -1 -0 -0 0 -0 -1 -1 -1 -2 -2 -2 -2 -1 0 1 1 1
1 1 0 -0 -1 -1 -0 -1 -1 -1 -2 -3 -3 -3 -4 -4 -3 -4 -4 -4 -4 -3 -3 -3 -2 -2 -1 -1 -0 0 0 -1 -2 -1 -1 -2 -2 -2 -2 -1 0 1 0 0